Weather History for Mandan, ND

Change the Weather History Date:

Friday, August 23, 2013

  Actual Average (KBIS) Record (KBIS)
Temperature  
Mean Temperature 74 °F 68 °F  
Max Temperature 87 °F 82 °F 102 °F (1976)
Min Temperature 60 °F 54 °F 35 °F (1911)
Degree Days  
Heating Degree Days 0 2  
Month to date heating degree days 21  
Since 1 June heating degree days 131  
Since 1 July heating degree days 38  
Cooling Degree Days 8 5  
Month to date cooling degree days 145  
Year to date cooling degree days 449  
Since 1 June cooling degree days 432  
Growing Degree Days 24 (Base 50)    
Moisture  
Dew Point 62 °F    
Average Humidity 67    
Maximum Humidity 94    
Minimum Humidity 46    
Precipitation  
Precipitation 0.00 in 0.07 in 2.50 in (1968)
Month to date precipitation 1.74  
Year to date precipitation 13.27  
Snow  
Snow 0.00 in 0.00 in 0.00 in (2002)
Month to date snowfall 0.0  
Since 1 June snowfall 0.0  
Since 1 July snowfall 0.0  
Snow Depth -    
Sea Level Pressure  
Sea Level Pressure 29.95 in    
Wind  
Wind Speed 11 mph (SSE)    
Max Wind Speed 23 mph    
Max Gust Speed 32 mph    
Visibility 10 miles    
Events      
T = Trace of Precipitation, MM = Missing Value Source: NWS Daily Summary

Daily Weather History Graph

Daily Weather History Graph

Search for Another Location

Airport:

Trip Planner

Search our weather history database for the weather conditions in past years. The results will help you decide how hot, cold, wet, or windy it might be!

Date:

Astronomy

Aug. 23, 2013 Rise Set
Actual Time 6:52 AM CDT 8:39 PM CDT
Civil Twilight 6:19 AM CDT 9:11 PM CDT
Nautical Twilight 5:40 AM CDT 9:50 PM CDT
Astronomical Twilight 4:57 AM CDT 10:33 PM CDT
Moon 9:42 PM CDT (8/23) 10:04 AM CDT (8/23)
Length of Visible Light 14h 51m
Length of Day
13h 47m
Waning Gibbous, 91% of the Moon is Illuminated
Aug 23
Waning Gibbous
Aug 28
Last Quarter
Sep 5
New
Sep 12
First Quarter
Sep 19
Full

Hourly Weather History & Observations

Time (CDT) Temp. Heat Index Dew Point Humidity Pressure Visibility Wind Dir Wind Speed Gust Speed Precip Events Conditions
12:15 AM 64.4 °F - 51.8 °F 64% 30.11 in 10.0 mi SE 6.9 mph - N/A   Clear
12:35 AM 64.4 °F - 51.8 °F 64% 30.11 in 10.0 mi SE 8.1 mph - N/A   Clear
12:55 AM 64.4 °F - 51.8 °F 64% 30.10 in 10.0 mi SE 8.1 mph - N/A   Clear
1:15 AM 62.6 °F - 51.8 °F 68% 30.10 in 10.0 mi SE 8.1 mph - N/A   Clear
1:35 AM 62.6 °F - 51.8 °F 68% 30.09 in 10.0 mi SE 6.9 mph - N/A   Clear
1:55 AM 62.6 °F - 50.0 °F 63% 30.09 in 10.0 mi SE 6.9 mph - N/A   Partly Cloudy
2:15 AM 62.6 °F - 50.0 °F 63% 30.08 in 10.0 mi SE 9.2 mph - N/A   Partly Cloudy
2:35 AM 62.6 °F - 50.0 °F 63% 30.08 in 10.0 mi SE 9.2 mph - N/A   Partly Cloudy
2:55 AM 62.6 °F - 50.0 °F 63% 30.07 in 10.0 mi SE 10.4 mph - N/A   Partly Cloudy
3:15 AM 62.6 °F - 50.0 °F 63% 30.07 in 10.0 mi SE 11.5 mph - N/A   Partly Cloudy
3:35 AM 62.6 °F - 50.0 °F 63% 30.06 in 10.0 mi SE 10.4 mph - N/A   Partly Cloudy
3:55 AM 62.6 °F - 51.8 °F 68% 30.05 in 10.0 mi SE 10.4 mph - N/A   Partly Cloudy
4:15 AM 62.6 °F - 51.8 °F 68% 30.05 in 10.0 mi SE 9.2 mph - N/A   Scattered Clouds
4:35 AM 62.6 °F - 53.6 °F 72% 30.05 in 10.0 mi SE 5.8 mph - N/A   Mostly Cloudy
4:55 AM 60.8 °F - 53.6 °F 77% 30.03 in 10.0 mi SE 8.1 mph - N/A   Partly Cloudy
5:15 AM 62.6 °F - 53.6 °F 72% 30.04 in 10.0 mi SE 6.9 mph - N/A   Partly Cloudy
5:35 AM 62.6 °F - 55.4 °F 77% 30.03 in 10.0 mi SSE 9.2 mph - N/A   Clear
5:55 AM 64.4 °F - 55.4 °F 73% 30.03 in 10.0 mi SSE 11.5 mph 18.4 mph N/A   Partly Cloudy
6:15 AM 64.4 °F - 57.2 °F 77% 30.02 in 10.0 mi SE 10.4 mph - N/A   Clear
6:35 AM 64.4 °F - 57.2 °F 77% 30.02 in 10.0 mi SSE 9.2 mph - N/A   Scattered Clouds
6:55 AM 64.4 °F - 59.0 °F 83% 30.02 in 10.0 mi SE 12.7 mph 18.4 mph N/A   Mostly Cloudy
7:15 AM 64.4 °F - 60.8 °F 88% 30.01 in 10.0 mi SE 12.7 mph 20.7 mph N/A   Scattered Clouds
7:35 AM 64.4 °F - 60.8 °F 88% 30.01 in 10.0 mi SSE 9.2 mph - N/A   Mostly Cloudy
7:55 AM 64.4 °F - 62.6 °F 94% 30.01 in 10.0 mi SSE 12.7 mph 16.1 mph N/A   Partly Cloudy
8:15 AM 66.2 °F - 62.6 °F 88% 30.01 in 10.0 mi SSE 15.0 mph - N/A   Clear
8:35 AM 66.2 °F - 64.4 °F 94% 30.00 in 10.0 mi SSE 12.7 mph 19.6 mph N/A   Clear
8:55 AM 66.2 °F - 64.4 °F 94% 30.00 in 10.0 mi SSE 12.7 mph - N/A   Clear
9:15 AM 68.0 °F - 64.4 °F 88% 30.00 in 10.0 mi SSE 13.8 mph - N/A   Clear
9:35 AM 68.0 °F - 66.2 °F 94% 29.99 in 10.0 mi SSE 11.5 mph 17.3 mph N/A   Partly Cloudy
9:55 AM 68.0 °F - 64.4 °F 88% 29.99 in 10.0 mi SE 12.7 mph - N/A   Clear
10:15 AM 69.8 °F - 66.2 °F 88% 29.98 in 10.0 mi SE 13.8 mph - N/A   Clear
10:35 AM 71.6 °F - 66.2 °F 83% 29.98 in 10.0 mi SE 11.5 mph 17.3 mph N/A   Partly Cloudy
10:55 AM 75.2 °F - 68.0 °F 78% 29.98 in 10.0 mi SE 12.7 mph 18.4 mph N/A   Partly Cloudy
11:15 AM 77.0 °F - 68.0 °F 74% 29.96 in 10.0 mi SE 13.8 mph 18.4 mph N/A   Scattered Clouds
11:35 AM 77.0 °F - 68.0 °F 74% 29.96 in 10.0 mi SE 13.8 mph 18.4 mph N/A   Scattered Clouds
11:55 AM 78.8 °F - 68.0 °F 69% 29.95 in 10.0 mi SSE 20.7 mph 27.6 mph N/A   Mostly Cloudy
12:15 PM 80.6 °F 83.2 °F 68.0 °F 65% 29.95 in 10.0 mi SSE 16.1 mph 26.5 mph N/A   Mostly Cloudy
12:35 PM 82.4 °F 85.4 °F 68.0 °F 62% 29.94 in 10.0 mi SSE 17.3 mph 24.2 mph N/A   Mostly Cloudy
12:55 PM 82.4 °F 85.4 °F 68.0 °F 62% 29.93 in 8.0 mi SSE 19.6 mph 27.6 mph N/A   Scattered Clouds
1:15 PM 82.4 °F 84.6 °F 66.2 °F 58% 29.93 in 10.0 mi SSE 19.6 mph 28.8 mph N/A   Partly Cloudy
1:35 PM 84.2 °F 86.6 °F 66.2 °F 55% 29.92 in 10.0 mi South 19.6 mph 29.9 mph N/A   Clear
1:55 PM 84.2 °F 86.6 °F 66.2 °F 55% 29.91 in 10.0 mi SSE 20.7 mph 28.8 mph N/A   Partly Cloudy
2:15 PM 84.2 °F 85.6 °F 64.4 °F 51% 29.91 in 10.0 mi SSE 23.0 mph 28.8 mph N/A   Clear
2:35 PM 84.2 °F 85.6 °F 64.4 °F 51% 29.91 in 10.0 mi SSE 19.6 mph 31.1 mph N/A   Scattered Clouds
2:55 PM 86.0 °F 87.3 °F 64.4 °F 48% 29.90 in 10.0 mi SSE 18.4 mph 27.6 mph N/A   Scattered Clouds
3:15 PM 86.0 °F 87.3 °F 64.4 °F 48% 29.88 in 10.0 mi South 15.0 mph 24.2 mph N/A   Clear
3:35 PM 86.0 °F 87.3 °F 64.4 °F 48% 29.88 in 10.0 mi SSE 19.6 mph 28.8 mph N/A   Clear
3:55 PM 86.0 °F 87.3 °F 64.4 °F 48% 29.87 in 10.0 mi South 20.7 mph 32.2 mph N/A   Clear
4:15 PM 87.8 °F 89.4 °F 64.4 °F 46% 29.87 in 10.0 mi SSE 21.9 mph 31.1 mph N/A   Partly Cloudy
4:35 PM 86.0 °F 87.3 °F 64.4 °F 48% 29.87 in 10.0 mi SSE 16.1 mph 27.6 mph N/A   Partly Cloudy
4:55 PM 87.8 °F 89.4 °F 64.4 °F 46% 29.86 in 10.0 mi South 18.4 mph 26.5 mph N/A   Partly Cloudy
5:15 PM 87.8 °F 89.4 °F 64.4 °F 46% 29.85 in 10.0 mi SSE 16.1 mph 25.3 mph N/A   Scattered Clouds
5:35 PM 86.0 °F 87.3 °F 64.4 °F 48% 29.85 in 10.0 mi South 17.3 mph 25.3 mph N/A   Scattered Clouds
5:55 PM 86.0 °F 87.3 °F 64.4 °F 48% 29.85 in 10.0 mi South 15.0 mph 26.5 mph N/A   Partly Cloudy
6:15 PM 86.0 °F 87.3 °F 64.4 °F 48% 29.84 in 10.0 mi SSE 13.8 mph 21.9 mph N/A   Clear
6:35 PM 86.0 °F 87.3 °F 64.4 °F 48% 29.84 in 10.0 mi SSE 16.1 mph 23.0 mph N/A   Clear
6:55 PM 86.0 °F 87.3 °F 64.4 °F 48% 29.83 in 10.0 mi SSE 16.1 mph 23.0 mph N/A   Clear
7:15 PM 86.0 °F 87.3 °F 64.4 °F 48% 29.83 in 10.0 mi SSE 18.4 mph 24.2 mph N/A   Clear
7:35 PM 84.2 °F 85.6 °F 64.4 °F 51% 29.82 in 10.0 mi SSE 17.3 mph 24.2 mph N/A   Clear
7:55 PM 84.2 °F 85.6 °F 64.4 °F 51% 29.81 in 10.0 mi South 15.0 mph 20.7 mph N/A   Clear
8:15 PM 82.4 °F 83.9 °F 64.4 °F 54% 29.81 in 10.0 mi SSE 12.7 mph 21.9 mph N/A   Clear
8:35 PM 82.4 °F 84.6 °F 66.2 °F 58% 29.82 in 10.0 mi South 11.5 mph 18.4 mph N/A   Clear
8:55 PM 80.6 °F 82.7 °F 66.2 °F 61% 29.82 in 10.0 mi SSE 10.4 mph 17.3 mph N/A   Clear
9:15 PM 77.0 °F - 66.2 °F 69% 29.82 in 10.0 mi South 9.2 mph - N/A   Clear
9:35 PM 77.0 °F - 66.2 °F 69% 29.83 in 10.0 mi SSE 9.2 mph - N/A   Clear
9:55 PM 75.2 °F - 66.2 °F 73% 29.84 in 10.0 mi SSE 9.2 mph - N/A   Clear
10:15 PM 75.2 °F - 66.2 °F 73% 29.84 in 10.0 mi SSE 9.2 mph - N/A   Clear
10:35 PM 73.4 °F - 68.0 °F 83% 29.84 in 10.0 mi SSE 9.2 mph - N/A   Clear
10:55 PM 73.4 °F - 68.0 °F 83% 29.84 in 10.0 mi SSE 8.1 mph - N/A   Clear
11:15 PM 73.4 °F - 68.0 °F 83% 29.84 in 10.0 mi SSE 8.1 mph - N/A   Clear
11:35 PM 73.4 °F - 68.0 °F 83% 29.83 in 10.0 mi SE 8.1 mph - N/A   Clear
11:55 PM 71.6 °F - 68.0 °F 88% 29.83 in 10.0 mi SSE 8.1 mph - N/A   Clear